{"data":{"norad_id":68425,"epoch":"2026-09-19T15:14:35.485152Z","epoch_age_seconds":143636,"freshness":"FRESH","line1":"1 68425U 26067K   26262.63513293  .00004291  00000+0  20417-3 0  9998","line2":"2 68425  97.4691 220.0728 0002589  50.3364 309.8099 15.19697217 26283","mean_motion":15.19697217,"eccentricity":0.0002589,"inclination_deg":97.4691,"raan_deg":220.0728,"arg_perigee_deg":50.3364,"mean_anomaly_deg":309.8099,"bstar":0.00020417,"rev_number":2628,"period_min":94.755717381826,"perigee_km":504.97245620453,"apogee_km":508.53745325869,"semimajor_km":6884.8919547316,"source":"CELESTRAK","updated_at":"2026-09-20T09:00:24.200296Z"}}